Preview of NWS' New Version of Forecast
This preview is not operational and should not be used for support decisions.
Latest weather observations around

Coffeyville, Coffeyville Municipal Airport (KCFV)

Using English Units (Switch to International System of Units)
Date/ Time (CDT) Wind (mph) Vis. (mi) Weather Sky Cond. Temp (°F) Rel. Humidity Wind Chill (°F) Heat Index (°F) Pressure Precip. (in)
Air Dwpt 6 hour Altimeter (inHg) Sea level (inHg) 1 hr 3 hr 6 hr
Max Min
Mar 26 00:52 NW 3 7 Clear CLR 44 42     93% 43   30.34 30.35      
Mar 25 23:52 ENE 5 9 Clear CLR 48 44     86% 46   30.32 30.32      
Mar 25 22:52 NNE 6 10 Mostly Clear FEW038 48 43     83% 45   30.33 30.33      
Mar 25 21:52 NNW 7 10 Cloudy OVC036 52 45     77%     30.33 30.33      
Mar 25 20:52 N 6 10 Cloudy OVC034 52 45     77%     30.3 30.3      
Mar 25 19:52 NNW 7 10 Cloudy OVC032 53 45     74%     30.28 30.28      
Mar 25 18:52 NNE 10 10 Cloudy OVC036 54 45     72%     30.28 30.28      
Mar 25 17:52 N 10 10 Cloudy FEW027 OVC036 55 45     69%     30.27 30.27      
Mar 25 16:52 NNE 8 10 Cloudy FEW029 OVC035 56 45     67%     30.26 30.27      
Mar 25 15:52 NNW 9 10 Cloudy FEW028 OVC037 56 45     67%     30.26 30.26      
Mar 25 15:43 N 9 10 Cloudy SCT028 OVC039 56 45     67%     30.26        
Mar 25 14:52 N 10 10 Cloudy OVC027 54 45     72%     30.27 30.27      
Mar 25 14:18 N 14 10 Cloudy OVC029 54 45     72%     30.27        
Mar 25 13:52 N 10 10 Cloudy FEW025 OVC032 55 45     69%     30.27 30.27      
Mar 25 13:12 N 14 10 Cloudy SCT025 OVC032 55 46     72%     30.27        
Mar 25 13:02 N 11 10 Cloudy BKN025 OVC032 55 46     72%     30.27        
Mar 25 12:52 N 11 10 Cloudy SCT025 OVC034 55 46     72%     30.26 30.27      
Mar 25 12:35 NNW 11 10 Cloudy SCT021 SCT026 OVC036 56 47     72%     30.26        
Mar 25 11:52 N 11 10 Cloudy BKN021 OVC037 55 47     74%     30.26 30.26      
Mar 25 10:52 N 13 10 Cloudy BKN017 OVC036 54 46     74%     30.24 30.24      
Mar 25 10:35 N 14 9 Cloudy BKN016 OVC036 53 46     77%     30.24        
Mar 25 09:52 N 17 8 Cloudy FEW014 OVC038 53 46     77%     30.22 30.22      
Mar 25 09:25 N 14 8 Cloudy SCT014 OVC039 52 47     83%     30.2        
Mar 25 08:52 N 11 7 Cloudy BKN014 OVC039 51 47     86%     30.19 30.19      
Mar 25 08:36 N 11 7 Cloudy BKN014 OVC040 51 46     83%     30.19        
Mar 25 08:26 N 15 7 Cloudy BKN015 OVC040 51 46     83%     30.19        
Mar 25 07:52 N 11 6 Fog/Mist FEW014 OVC040 50 46     86%     30.17 30.17      
Mar 25 06:52 NNW 10 8 Clear   50 46     86%     30.14 30.14      
Mar 25 05:52 NNW 10 7 Cloudy OVC035 50 46     86%     30.13 30.12      
Mar 25 04:52 NNW 8 7 Cloudy OVC035 48 46     93% 44   30.11 30.11      
Mar 25 03:52 NNW 7 7 Clear CLR 46 44     93% 42   30.1 30.1      
Mar 25 02:52 NNW 7 9 Clear CLR 47 44     90% 44   30.11 30.11      
Mar 25 01:52 NNW 9 10 Clear CLR 48 45     89% 44   30.11 30.1      
Mar 25 00:52 NNW 8 10 Clear CLR 49 45     86% 45   30.11 30.1      
Mar 24 23:52 NNW 10 10 Clear CLR 51 45     79%     30.09 30.09      
Mar 24 22:52 NNW 11 10 Clear CLR 53 45     74%     30.08 30.07      
Mar 24 21:52 NNW 10 10 Clear CLR 54 45     72%     30.06 30.06      
Mar 24 20:52 N 8 10 Clear CLR 54 45     72%     30.04 30.03      
Mar 24 19:52 N 16 10 Clear CLR 59 46     62%     30.01 30.01      
Mar 24 18:52 NNW 16 10 Clear CLR 64 46     52%     29.98 29.98      
Mar 24 17:52 NNW 15 10 Clear CLR 68 45     43%     29.96 29.95      
Mar 24 16:52 WNW 16 10 Clear CLR 70 44     39%     29.95 29.94      
Mar 24 15:52 WNW 14 10 Clear CLR 71 45     39%   70 29.95 29.94      
Mar 24 14:52 WNW 11 10 Clear CLR 68 46     45%     29.95 29.94      
Mar 24 13:52 WSW 11 10 Mostly Clear FEW034 66 50     56%     29.97 29.96      
Mar 24 13:35 W 8 10 Partly Cloudy SCT028 67 52     59%     29.97        
Mar 24 13:14 WSW 8 10 Mostly Cloudy BKN026 65 53     65%     29.98        
Mar 24 12:52 WSW 5 10 Partly Cloudy SCT019 62 53     72%     29.98 29.98      
Mar 24 12:31 SSW 8 10 Mostly Cloudy BKN015 BKN021 61 55     81%     29.99        
Mar 24 12:20 SW 5 10 Cloudy BKN011 OVC018 60 55     83%     29.99        
Mar 24 12:04 SW 6 8 Cloudy BKN009 OVC017 59 55     87%     29.99        
Mar 24 11:52 SW 7 7 Cloudy SCT008 OVC016 58 55     90%     29.99 29.99      
Mar 24 11:37 WSW 6 6 Fog/Mist SCT005 OVC016 57 54     89%     30        
Mar 24 11:29 W 6 4 Fog/Mist BKN006 OVC015 56 54     93%     30        
Mar 24 10:58 WSW 5 2.5 Fog/Mist BKN007 OVC011 55 53     93%     30        
Mar 24 10:52 WSW 3 3 Fog/Mist FEW004 OVC011 55 54     96%     30 30      
Mar 24 10:43 SW 5 2.5 Fog/Mist SCT004 OVC012 55 54     96%     30        
Mar 24 10:33 SW 3 2 Fog/Mist BKN004 OVC011 54 53     97%     30        
Mar 24 10:18 SW 3 1.5 Fog/Mist OVC006 54 53     97%     29.99        
Mar 24 10:07 WSW 3 2.5 Fog/Mist OVC006 54 53     97%     29.99        
Mar 24 09:52 Calm 3 Fog/Mist OVC007 54 53     97%     30 29.99      
Mar 24 09:16 Calm 3 Fog/Mist OVC008 54 52     93%     29.99        
Mar 24 08:52 SW 3 2.5 Fog/Mist OVC007 53 52     96%     29.99 29.99      
Mar 24 08:49 SSW 3 2.5 Fog/Mist OVC007 54 52     94%     29.99        
Mar 24 08:29 SSW 3 4 Fog/Mist OVC008 53 52     96%     29.99        
Mar 24 07:52 SSW 3 6 Fog/Mist OVC013 53 51     93%     29.99 29.99      
Mar 24 07:32 W 3 8 Cloudy BKN011 OVC018 53 51     93%     29.99        
Mar 24 06:52 NW 5 8 Cloudy BKN009 OVC017 53 51     93%     29.98 29.98      
Mar 24 06:41 WNW 5 8 Cloudy SCT008 OVC017 52 51     97%     29.97        
Mar 24 06:24 SW 3 8 Mostly Cloudy BKN017 52 50     93%     29.97        
Mar 24 05:52 S 8 9 Mostly Clear FEW022 52 50     93%     29.95 29.95      
Mar 24 05:43 S 8 9 Partly Cloudy FEW018 SCT026 52 50     93%     29.95        
Mar 24 04:52 S 8 10 Cloudy OVC018 53 51     93%     29.94 29.94      
Mar 24 04:18 SSE 8 8 Mostly Cloudy BKN020 52 50     93%     29.94        
Mar 24 03:52 SSE 7 8 Partly Cloudy SCT030 51 50     96%     29.95 29.95      
Mar 24 03:38 SSE 6 9 Cloudy SCT026 OVC032 52 50     93%     29.96        
Mar 24 02:52 S 7 10 Cloudy BKN028 OVC035 52 50     93%     29.97 29.97      
Mar 24 01:52 S 8 10 Mostly Cloudy BKN031 51 49     92%     29.97 29.97      
Mar 24 01:23 SSE 7 10 Partly Cloudy SCT021 50 48     93%     29.97        
Mar 24 00:52 SE 7 10 Mostly Cloudy BKN029 BKN120 50 48     93%     29.98 29.98     0
Mar 23 23:52 SE 10 10 Partly Cloudy SCT080 51 48     89%     30.01 30.01 0    
Mar 23 23:18 SE 10 8 Light Rain FEW049 BKN070 OVC090 51 48     89%     30.01   0    
Mar 23 23:04 SE 10 10 Mostly Cloudy FEW038 BKN070 52 48     86%     30.01        
Mar 23 22:52 SE 13 10 Partly Cloudy SCT037 52 48     86%     30.01 30.01      
Mar 23 21:52 ESE 9 10 Cloudy OVC030 53 49     86%     30.02 30.02      
Mar 23 21:38 ESE 9 10 Cloudy OVC030 52 49     89%     30.02        
Mar 23 21:23 ESE 5 10 Cloudy OVC029 52 50     93%     30.03        
Mar 23 20:52 ESE 8 10 Cloudy OVC030 52 50     93%     30.02 30.02      
Mar 23 20:41 ESE 9 10 Cloudy OVC030 52 50     93%     30.02        
Mar 23 19:52 ESE 11 9 Cloudy FEW007 BKN026 OVC032 52 50     93%     30.02 30.02      
Mar 23 19:35 SE 9 9 Cloudy SCT007 OVC024 52 51     97%     30.03        
Mar 23 19:28 SE 9 8 Cloudy BKN008 BKN012 OVC026 52 51     97%     30.03        
Mar 23 19:15 SE 11 6 Fog/Mist FEW006 BKN010 OVC014 52 51     97%     30.03        
Mar 23 18:52 SE 8 3 Fog/Mist BKN010 OVC017 52 51     97%     30.02 30.02 0   1
Mar 23 18:48 SE 10 2.5 Fog/Mist OVC011 52 52     100%     30.02   0    
Mar 23 18:33 ESE 9 3 Fog/Mist BKN013 OVC020 52 51     97%     30.02   0    
Mar 23 18:12 SE 9 2.5 Fog/Mist BKN011 OVC017 52 50     93%     30.02   0    
Mar 23 17:52 SE 10 2.5 Light Rain and Fog/Mist OVC020 52 50     93%     30.02 30.02 0    
Mar 23 17:41 ESE 10 2.5 Light Rain and Fog/Mist OVC020 52 50     93%     30.02   0    
Mar 23 16:52 ESE 9 9 Cloudy OVC028 52 49     89%     30.01 30.01 0    
Mar 23 16:24 ESE 9 4 Rain and Fog/Mist OVC039 52 49     89%     30   0    
Mar 23 16:09 ESE 15 10 Light Rain BKN041 OVC049 52 48     86%     30   0    
Mar 23 15:59 SE 15 8 Thunderstorms and Rain BKN039 OVC049 52 48     86%     30   0    
Mar 23 15:52 SE 17 2.5 Thunderstorms and Rain and Fog/Mist SCT035 OVC047 52 48     86%     30.01 30.01 0 0  
Mar 23 15:47 ESE 15 1.25 Thunderstorms and Heavy Rain and Fog/Mist BKN035 OVC047 52 48     87%     30   0    
Mar 23 15:38 SE 16 2.5 Thunderstorms and Rain OVC037 53 48     83%     30   0    
Mar 23 15:08 ESE 15 10 Light Rain OVC095 52 48     86%     30   0    
Mar 23 14:52 ESE 18 9 Thunderstorms and Rain FEW075 OVC100 51 48     89%     30 30 0    
Mar 23 14:42 SE 15 6 Light Rain and Fog/Mist FEW055 BKN090 OVC110 51 49     92%     30.01   0    
Mar 23 14:29   2.5 Heavy Rain and Fog/Mist FEW019 BKN050 OVC075 51 48     89%     29.98   0    
Mar 23 14:21   1.5 Thunderstorms and Rain and Fog/Mist BKN050 OVC070 51 48     89%     30.02   0    
Mar 23 14:12 ESE 21 2.5 Thunderstorms and Rain and Fog/Mist BKN050 OVC060 51 48     89%     30.02   0    
Mar 23 14:04 ESE 14 3 Light Rain and Fog/Mist FEW046 OVC055 51 48     89%     30.05   0    
Mar 23 13:52 ESE 11 1.75 Heavy Rain and Fog/Mist SCT050 OVC060 51 48     89%     30.07 30.07 0    
Mar 23 13:34 SSE 11 2.5 Heavy Rain and Fog/Mist BKN060 OVC075 52 48     86%     30.08   0    
Mar 23 13:11 SE 14 10 Light Rain SCT055 OVC080 52 47     83%     30.07   0    
Mar 23 12:52 S 15 9 Light Rain OVC085 52 46     80%     30.08 30.08 0   0
Mar 23 12:48 S 16 10 Light Rain OVC085 52 46     82%     30.08   0    
Mar 23 12:14 SSE 8 7 Light Rain OVC085 51 46     83%     30.05   0    
Mar 23 11:52 SE 10 9 Light Rain BKN080 BKN095 OVC120 51 45     79%     30.06 30.06 0    
Mar 23 10:52   3 Clear   50 46     86%     30.06 30.06 0    
Mar 23 10:28 SE 16 5 Light Rain OVC060 50 45     83%     30.08   0    
Mar 23 10:10 ESE 10 2 Rain BKN055 OVC070 50 45     83%     30.1   0    
Mar 23 09:52 W 7 5 Light Rain OVC065 50 44     80%     30.12 30.13 0 0  
Mar 23 09:36   3 Rain FEW055 OVC070 50 44     80%     30.12   0    
Mar 23 08:52 ESE 8 8 Cloudy OVC070 53 40     61%     30.04 30.04      
Mar 23 07:52 E 9 8 Cloudy OVC075 50 41     71%     30.06 30.06 0    
Mar 23 06:52 NE 3 9 Light Rain OVC085 49 42     77% 48   30.07 30.07 0   0
Mar 23 05:52 Calm 10 Cloudy FEW075 OVC100 52 37     57%     30.09 30.08      
Mar 23 04:52 NW 3 10 Partly Cloudy FEW090 SCT110 52 37     57%     30.06 30.06      
Mar 23 03:52 NE 7 9 Cloudy OVC110 51 38     61%     30.04 30.03      
Mar 23 02:52 E 5 10 Mostly Cloudy BKN110 53 36     52%     30.06 30.05      
Mar 23 01:52 E 6 10 Mostly Clear FEW100 55 35     47%     30.06 30.06      
Mar 23 00:52 E 8 9 Mostly Cloudy BKN110 55 36     48%     30.06 30.05      
May 15 13:52 SW 9 10 Mostly Clear FEW033 81 67     62%   83 29.96 29.94      
May 15 12:52 SW 9 10 Clear CLR 79 66     65%   80 29.98 29.96      
May 15 03:24 E 10 10 Light Rain OVC110 65 62     90%     29.96   0    
May 15 02:14 ENE 17 7 Thunderstorms and Rain BKN095 OVC110 65 63     93%     29.96   0    
May 14 23:52 N 22   Thunderstorms and Heavy Rain   64 62     93%     30.01 29.99 1    
May 14 21:52 ESE 10 10 Partly Cloudy SCT055 81 66     61%   83 29.83        
May 14 10:52 SSW 16 10 Clear CLR 85 69     59%   89 29.92 29.89      
Notice The following observation data may not be complete
May 14 06:52   9 Clear CLR          %              
May 14 03:52 SSE 7 10 Clear CLR 70 65     84%     29.92 29.9      
May 13 10:52 S 17 10 Clear CLR 82 69     65%   85 29.99 29.96      
May 11 21:52 S 15 10 Clear CLR 77 63     62%   77 29.81 29.79      
Jun 12 05:52 SSE 9 10 Clear CLR 69 65     87%     29.9 29.87      
Jun 11 21:52 SSE 9 10 Clear CLR 77 67     71%   78 29.86 29.84      
Jun 08 22:52 ESE 3 10 Clear CLR 63 57     81%     29.93 29.92      
Jun 06 09:52 NE 8 10 Clear CLR 78 66     67%   79 29.95 29.93      
Notice The following observation data may not be complete
Jun 05 20:52 Calm 10 Clear CLR   70      %     29.83 29.81